Theta_e
303 303 303 303 303 303 303 302 302 302 303 303 303 303 303 303 303 304 304 304 304 303 303 303 303 303 303 303 303 304 306 308 307 305 304 304 304 304 304 303 302 302 303 303 303 304 304 304 303 305 307 305 306 307 307 308 306 309 313 312 311 312 313 314 315 315 315 314 314 314 314 315 317 316 316 317 318 320 320 324 329 330 330 330 330 330 331 332
303 303 303 303 303 303 303 302 302 302 303 303 303 303 303 303 303 304 304 303 303 303 303 303 303 303 303 303 304 305 306 309 308 305 305 305 305 305 305 305 304 304 305 305 304 305 305 305 304 305 306 306 306 306 308 308 306 310 312 312 312 311 312 312 312 313 313 312 312 313 312 313 314 314 314 317 318 318 319 322 325 328 330 330 330 330 331 332
304 303 302 303 303 304 303 303 302 302 302 303 303 303 303 303 303 304 303 303 303 302 303 303 303 303 303 303 305 306 307 310 308 305 305 306 306 306 306 306 306 306 306 305 305 305 305 305 305 305 306 307 307 306 309 307 306 310 309 309 311 310 310 310 311 312 311 310 310 310 310 311 312 312 313 315 317 317 318 319 321 326 330 332 332 331 331 331
304 303 303 303 303 304 304 303 302 302 302 303 303 303 303 303 303 303 303 303 303 302 302 303 303 303 303 303 305 307 309 311 308 305 306 305 306 306 306 306 307 307 307 306 306 306 306 306 306 306 306 308 308 307 308 307 307 308 306 306 308 308 308 308 309 309 309 309 308 308 309 309 310 310 311 313 315 316 317 317 320 325 328 330 332 331 331 332
303 303 303 303 303 303 304 304 303 302 303 303 303 303 303 303 303 303 303 303 303 302 302 302 303 303 303 303 304 308 312 312 307 305 305 305 305 306 306 306 306 307 307 307 307 306 307 307 307 307 307 308 309 308 308 307 306 306 305 306 307 307 307 307 308 307 308 307 307 308 308 308 308 308 309 311 313 315 316 317 318 320 322 325 329 332 332 332
303 303 302 303 303 303 304 304 303 302 302 303 303 303 303 303 303 303 303 303 303 303 302 302 302 303 303 303 304 309 311 309 306 305 305 305 306 306 306 306 306 307 307 307 307 307 307 307 307 307 307 308 309 308 308 307 306 306 306 306 307 307 307 307 307 306 306 306 306 307 307 307 307 307 307 308 309 310 314 316 315 315 317 318 322 327 331 333
303 303 302 302 303 304 304 304 303 303 302 303 303 303 303 303 303 303 303 303 303 303 302 302 302 303 303 303 306 310 309 307 306 305 305 305 305 306 306 306 306 307 308 308 307 307 307 307 307 307 307 308 308 308 309 308 307 308 308 308 308 308 308 308 307 306 305 305 305 306 307 307 307 307 306 306 306 306 309 312 312 313 315 316 316 320 325 330
303 303 302 302 303 303 304 304 303 303 302 303 303 303 303 303 303 303 303 303 303 303 302 302 302 302 303 304 308 311 309 306 305 304 305 304 305 306 306 306 306 307 309 309 308 307 308 307 307 306 307 308 307 308 309 309 309 309 309 310 309 308 308 307 307 307 306 306 306 306 307 307 307 307 307 307 306 305 305 306 308 311 313 314 315 315 317 322
304 303 302 302 303 303 304 304 303 303 302 303 303 303 303 303 303 303 303 303 302 303 302 302 302 302 303 303 308 312 308 305 304 304 304 304 305 306 306 307 307 307 308 309 309 307 308 308 307 306 306 306 307 307 308 308 309 310 309 309 308 308 308 307 307 307 307 307 307 308 308 307 307 307 308 308 306 305 304 304 305 306 307 309 310 312 313 316
303 303 302 302 303 303 304 304 303 303 302 303 303 303 303 303 303 303 303 302 302 303 302 302 302 302 303 303 307 312 307 304 304 303 303 304 304 305 306 307 307 307 307 308 309 308 307 308 307 307 306 306 306 307 308 308 310 309 308 308 308 308 308 308 308 308 308 308 308 308 309 308 307 308 308 307 307 306 305 305 305 304 303 304 305 306 308 311
303 303 302 303 302 303 304 304 303 303 303 303 303 304 304 303 303 303 303 302 302 302 302 302 302 302 303 304 308 310 306 303 304 303 303 303 303 305 306 306 307 307 307 307 308 307 307 307 307 307 307 307 307 308 309 309 309 308 308 308 309 309 309 309 309 309 309 309 308 308 309 308 308 308 308 307 306 307 308 308 307 307 306 305 306 307 307 307
303 303 303 302 302 303 303 304 303 303 303 303 304 304 304 304 304 303 303 302 302 302 302 302 302 302 302 307 311 308 304 303 304 303 304 303 303 304 305 306 307 307 307 307 307 307 307 307 307 308 308 308 308 309 310 309 308 308 308 309 310 311 312 311 310 310 310 310 309 308 309 309 309 309 308 307 306 306 308 309 309 309 308 308 309 310 311 310
303 303 303 302 302 303 304 304 303 303 303 303 304 304 304 304 304 304 303 302 302 302 302 301 302 301 303 309 310 306 304 304 303 304 303 303 304 304 304 306 306 307 307 307 307 307 307 307 307 307 308 308 308 309 310 308 308 309 310 310 311 312 313 313 312 311 310 311 309 308 309 309 310 309 308 308 308 307 307 308 308 307 307 306 307 308 311 314
303 303 303 302 302 303 304 303 303 303 303 304 304 304 304 304 304 304 303 303 302 302 302 302 302 301 305 310 308 304 304 303 303 304 303 304 303 304 306 306 306 307 307 306 307 307 307 307 307 307 308 308 308 308 309 309 310 311 312 312 311 312 314 313 312 312 311 310 308 308 309 309 310 309 309 309 308 307 307 307 308 307 307 307 306 306 307 310
303 303 302 302 302 303 303 303 303 303 303 304 304 304 304 303 304 303 303 303 302 302 302 302 302 301 306 311 307 304 304 303 303 304 303 303 303 304 306 306 306 306 306 306 306 307 307 307 307 308 310 309 308 309 310 312 312 312 313 315 313 313 314 313 311 311 312 311 307 308 310 309 309 310 309 309 308 308 309 309 308 307 307 307 307 307 306 306
303 302 303 303 302 303 303 303 303 303 303 304 304 304 304 304 304 303 303 302 302 302 302 302 302 302 307 311 307 305 304 302 303 304 303 303 304 305 306 306 306 306 306 307 308 308 308 307 307 308 309 309 309 310 312 314 315 313 313 315 315 314 314 313 312 311 311 311 309 309 310 310 310 309 309 309 309 309 309 308 308 307 307 306 307 307 307 307
303 302 302 302 302 303 303 303 303 303 303 304 304 304 304 303 303 303 303 302 302 302 301 302 301 304 308 308 306 305 304 302 303 304 303 303 304 305 305 305 305 306 307 308 310 310 308 308 309 309 309 309 311 312 314 316 316 315 314 314 314 313 312 312 313 311 311 312 311 310 310 310 309 309 309 309 309 309 309 309 308 308 308 307 308 307 307 308
303 303 303 302 302 302 303 303 302 303 303 303 304 303 303 303 304 303 303 302 303 305 306 304 304 309 311 306 305 305 302 302 303 303 303 304 304 304 305 306 306 307 309 310 311 310 309 309 310 310 310 311 312 313 315 315 315 314 314 314 313 312 312 312 312 312 312 312 311 311 310 310 310 309 310 309 309 310 310 310 309 309 309 308 308 308 308 308
303 303 303 302 302 302 303 303 302 303 303 303 303 303 304 306 306 304 303 304 305 310 312 308 306 309 309 306 305 303 301 303 304 304 304 304 303 303 305 307 308 309 310 312 312 311 310 310 311 312 313 313 313 314 315 314 314 314 314 313 313 312 312 311 312 312 312 311 311 310 310 310 310 310 310 310 310 310 310 310 310 309 309 308 308 308 308 308
303 303 302 302 302 302 303 302 303 303 303 304 302 304 307 309 310 308 304 304 305 306 307 305 303 303 305 307 305 302 303 304 305 306 305 304 303 304 308 309 309 311 312 313 314 311 310 312 313 314 314 314 313 313 314 313 313 313 313 313 313 313 312 311 312 311 311 312 311 310 310 310 310 310 310 310 310 310 310 310 309 309 309 308 308 308 307 307
302 303 302 302 302 302 303 302 302 302 303 303 302 304 306 306 309 309 304 305 305 303 303 302 302 301 303 304 303 302 303 305 307 308 306 304 303 307 310 309 309 311 312 312 312 311 312 313 314 314 314 313 313 313 313 312 312 312 312 312 312 312 312 311 312 312 311 312 311 310 310 310 309 309 309 309 310 309 309 309 309 309 309 309 308 308 308 307
302 302 302 302 302 302 303 302 302 302 303 303 302 303 303 302 305 304 302 306 307 305 303 302 302 303 302 302 302 303 304 307 309 308 306 303 305 310 309 307 309 311 310 310 312 313 312 313 313 313 312 312 313 313 313 312 312 312 312 311 311 311 312 312 312 312 312 312 311 310 310 310 309 309 309 309 309 309 309 309 309 309 309 309 309 308 308 307
302 302 302 302 302 302 302 302 302 302 302 303 303 302 302 302 303 302 302 306 308 307 304 303 303 305 305 305 304 303 305 308 307 306 305 303 306 310 307 308 310 310 310 312 313 313 312 311 311 312 312 312 313 312 312 312 312 312 311 311 311 312 312 313 312 312 312 311 310 310 310 309 309 309 309 308 308 308 309 309 309 309 309 309 309 309 308 307
302 302 302 302 302 302 302 302 302 302 303 302 302 302 302 303 302 302 304 307 309 307 304 302 302 304 305 305 304 304 306 306 304 306 306 303 306 308 308 310 310 309 311 312 312 312 312 311 310 311 312 312 312 311 310 311 312 312 312 312 312 312 313 313 313 312 311 311 311 310 310 310 309 309 309 309 309 308 309 309 309 309 309 309 309 309 308 306
302 302 302 302 302 302 302 302 302 302 302 302 302 302 302 303 302 302 304 308 310 308 305 304 303 305 304 303 304 303 305 305 304 306 304 302 305 307 308 309 309 310 312 312 312 311 311 311 311 312 312 310 310 310 310 310 311 311 312 312 312 313 313 313 312 311 311 311 311 310 310 311 309 309 309 310 310 310 309 309 309 309 309 309 309 308 308 306
302 302 302 301 302 302 301 301 301 302 302 302 302 302 302 303 302 302 305 311 312 310 309 308 307 308 306 304 304 302 306 309 306 305 304 304 305 306 307 308 310 311 311 311 311 310 309 310 312 312 310 309 309 310 310 310 311 312 312 313 314 313 313 312 311 311 310 310 310 309 310 311 310 309 309 309 309 310 310 309 309 308 308 309 308 309 308 306
302 302 301 302 301 301 302 303 302 301 302 303 302 302 303 303 302 303 308 315 314 309 310 309 307 307 305 304 303 303 309 311 306 306 305 304 305 305 307 309 309 310 310 311 311 312 312 311 312 312 309 308 308 309 311 311 312 314 313 313 313 312 311 311 311 311 310 310 310 309 309 310 310 309 308 309 309 309 310 310 309 308 308 308 308 308 308 307
302 302 301 301 301 301 302 304 303 301 302 303 302 302 303 303 302 304 312 320 313 307 310 309 306 305 304 303 304 304 306 306 307 310 305 302 305 307 309 309 309 310 310 310 310 311 312 311 311 311 309 308 308 310 311 311 312 313 312 313 312 311 311 311 310 310 310 310 311 310 309 310 311 309 309 309 309 309 309 310 310 309 308 308 308 308 307 308
302 302 301 301 301 301 302 303 302 301 302 302 302 303 302 302 303 307 314 317 310 306 309 308 307 307 304 305 307 304 304 305 308 308 304 304 306 306 308 308 308 309 309 309 309 309 309 310 310 310 309 309 309 310 310 311 312 311 311 312 311 311 310 310 310 310 311 311 311 310 309 310 311 310 309 310 310 310 310 310 310 309 309 308 308 308 307 307
302 301 301 301 301 301 301 302 301 301 302 301 302 303 302 304 307 312 317 315 310 309 307 306 307 308 307 307 308 305 305 307 306 305 305 307 307 306 307 307 307 309 309 309 309 309 309 310 309 309 309 309 308 308 308 309 310 310 311 311 310 310 309 310 310 310 311 311 311 311 309 309 310 310 309 310 310 310 310 310 310 309 310 309 308 308 307 307
301 301 301 300 300 301 301 301 301 301 301 302 303 301 303 308 311 316 317 311 310 310 307 308 308 307 306 306 306 306 307 307 306 306 307 307 308 308 308 309 308 310 310 309 310 309 309 312 311 308 307 307 309 310 310 310 310 310 312 311 309 309 308 311 311 310 310 311 310 311 310 309 310 310 310 310 309 309 309 309 310 310 309 309 308 308 307 307
301 301 301 300 300 301 301 301 301 301 301 302 302 303 308 313 313 316 314 308 310 311 307 309 308 306 306 305 305 306 307 307 306 306 306 306 308 309 309 308 308 310 309 308 308 308 310 314 312 309 308 307 310 312 312 312 312 311 311 310 308 307 307 308 309 308 309 310 311 312 310 309 309 309 311 311 309 309 309 309 310 310 310 308 308 307 307 310
301 301 301 300 300 301 301 302 301 301 302 302 302 305 310 312 313 316 313 308 309 309 306 307 307 306 306 307 307 306 307 308 307 307 307 306 308 309 308 307 307 309 308 307 308 308 312 313 312 313 312 308 310 311 310 312 312 310 310 310 309 308 307 306 306 307 308 309 311 312 310 310 310 310 312 312 309 309 309 310 310 310 309 309 308 309 311 313
302 302 301 300 300 300 301 302 301 301 301 301 304 309 310 309 312 313 311 310 307 305 306 306 305 307 307 307 307 306 307 308 306 307 308 307 308 309 308 307 307 307 306 308 308 308 310 311 312 315 313 310 311 311 310 311 311 309 309 310 308 308 307 305 306 307 308 308 309 310 310 311 312 312 313 311 308 309 310 309 310 310 310 309 309 312 313 313
302 302 301 301 300 300 301 301 301 301 301 303 307 311 310 310 312 312 311 310 306 305 307 305 304 307 308 306 305 304 305 306 306 306 307 308 307 307 308 308 307 306 306 308 306 306 309 311 312 312 310 311 312 311 309 310 310 309 309 310 309 309 308 306 306 306 306 307 307 308 310 312 313 313 312 309 307 308 308 308 310 310 310 311 311 312 312 312
302 301 301 301 300 300 300 301 301 301 301 305 310 311 310 311 311 311 312 309 307 308 309 307 305 308 309 307 307 305 303 304 307 307 306 307 306 306 308 307 306 305 305 306 305 306 308 309 309 308 309 311 310 310 310 308 308 309 310 310 309 308 307 307 307 306 306 308 309 309 311 313 313 312 310 307 306 308 307 307 310 309 308 310 311 312 312 311
302 301 301 300 300 300 300 300 301 300 301 307 312 310 309 309 308 309 309 306 306 306 307 308 308 307 308 307 308 307 304 305 307 306 306 307 306 307 307 306 306 305 304 304 305 306 307 307 306 306 309 311 308 309 310 307 307 309 310 310 308 307 307 307 307 307 307 308 309 311 312 311 310 310 309 306 307 308 306 307 309 310 308 308 310 312 312 311
302 301 300 300 300 300 300 300 300 300 303 308 311 309 308 306 304 305 305 303 305 306 306 307 308 307 307 307 307 306 306 307 307 306 307 307 306 307 307 306 306 304 303 303 304 305 306 308 308 308 311 310 308 309 310 308 308 308 308 308 306 306 306 305 306 307 307 307 308 310 311 311 310 309 308 307 308 309 306 306 308 310 310 309 310 311 311 311
301 300 301 301 299 300 300 300 299 300 304 308 309 309 308 305 302 301 303 303 304 306 307 307 308 307 305 306 306 305 305 305 305 305 306 306 306 307 306 306 306 304 303 303 304 305 306 308 311 310 309 308 308 310 310 309 308 307 307 307 306 306 306 304 305 306 306 307 309 310 310 311 310 308 308 308 308 308 307 305 306 309 310 309 309 310 310 310
301 300 303 301 299 300 300 299 299 302 307 308 307 307 305 303 302 300 301 303 302 304 308 308 307 305 305 305 305 303 304 304 303 304 305 305 305 306 305 305 306 305 303 302 304 304 304 306 309 308 306 306 307 309 308 306 306 306 307 307 306 306 306 305 305 305 306 308 309 309 309 311 310 307 308 308 307 307 306 305 307 310 311 309 309 309 309 310
300 302 305 302 299 300 299 300 301 304 307 307 307 307 304 303 303 300 300 301 301 301 304 307 306 305 305 305 304 302 303 304 303 303 304 305 305 305 305 304 305 305 304 303 304 304 304 305 306 306 305 304 306 308 307 305 305 306 305 306 307 305 304 306 307 307 306 306 307 307 308 310 310 308 308 307 306 306 304 306 310 312 313 312 310 310 309 310
301 304 305 301 299 299 299 301 303 304 307 307 306 306 304 302 302 301 300 300 301 300 299 302 305 305 304 304 303 303 302 303 304 304 304 304 304 305 305 304 303 303 303 304 304 303 303 304 304 305 304 305 306 305 303 304 306 306 305 305 307 306 304 305 307 307 305 304 306 307 308 311 311 309 308 307 306 306 306 309 312 313 314 313 312 311 310 310
301 303 302 300 299 299 300 303 304 304 305 303 301 302 303 302 302 301 300 300 302 301 300 301 302 304 305 304 303 303 302 303 305 305 304 304 304 305 304 302 302 302 302 304 304 302 302 304 305 305 305 305 306 304 301 303 306 306 304 304 306 306 305 304 305 304 303 305 308 310 311 312 311 309 307 307 306 306 307 309 310 312 313 314 313 311 311 311
301 301 300 299 299 299 302 305 305 305 304 301 300 301 301 301 301 301 301 301 302 302 301 302 301 302 304 302 302 303 303 305 306 305 304 304 304 303 302 302 302 302 304 304 303 302 302 304 306 306 306 306 307 306 305 306 306 304 304 305 306 307 306 305 304 303 304 307 310 311 312 311 310 309 307 306 305 305 306 306 308 310 311 312 313 311 311 312
301 300 299 298 298 300 303 304 303 305 306 303 303 303 302 302 301 301 301 301 301 301 301 301 301 301 302 301 301 302 303 303 304 304 303 303 303 302 301 301 301 302 303 302 301 301 303 304 305 307 308 307 307 306 306 305 304 303 304 304 304 306 306 304 304 306 308 309 309 310 311 310 309 309 307 305 305 305 305 305 307 309 310 311 312 312 312 312
301 301 300 298 298 299 301 301 300 302 306 305 303 304 305 304 302 300 300 301 301 300 300 300 299 300 302 302 302 302 302 302 302 302 302 302 303 303 300 300 301 301 301 300 300 301 302 303 304 306 308 307 305 305 304 304 303 303 303 303 302 304 305 304 305 308 309 309 310 312 310 309 310 309 307 305 304 304 304 304 305 307 309 310 312 313 312 312
302 303 301 299 299 299 299 300 300 301 304 304 303 305 305 305 303 301 300 301 301 299 299 298 299 301 303 302 303 303 302 302 301 302 302 301 302 303 301 300 301 301 300 299 300 301 302 304 304 304 305 304 303 303 302 302 302 301 302 301 302 303 304 304 307 309 308 310 314 313 309 309 310 309 307 306 305 305 305 304 304 305 307 310 312 313 313 313
302 303 301 300 301 301 300 300 300 301 303 303 303 306 306 304 305 304 301 300 299 299 301 300 299 301 303 304 304 304 303 302 303 303 304 303 303 303 303 301 300 299 299 300 300 299 301 304 303 302 303 302 302 302 301 301 300 300 301 302 302 302 303 305 307 308 308 310 313 312 309 309 310 309 308 307 306 305 304 303 304 304 306 310 313 314 313 314
302 302 301 300 302 302 300 300 301 301 303 303 304 306 307 305 305 304 302 299 299 299 300 303 302 301 302 304 305 305 304 305 306 305 303 303 303 303 304 304 301 299 300 300 299 297 300 304 303 302 303 302 302 302 301 300 301 301 301 300 301 302 303 304 307 308 308 309 310 310 309 309 310 309 307 306 305 305 303 302 303 303 304 308 313 314 313 314
301 302 301 300 301 301 301 301 301 301 302 303 304 306 306 306 306 305 302 302 304 302 299 302 305 302 301 303 305 305 305 306 309 308 305 304 304 303 303 304 303 300 299 300 299 297 298 303 304 303 304 304 303 302 302 301 300 300 301 301 301 304 305 304 306 308 308 308 309 310 310 310 309 307 305 304 303 303 302 302 302 301 302 305 309 313 314 314
302 302 301 301 301 301 302 302 302 302 302 302 304 305 305 306 306 305 302 302 305 305 300 301 305 304 301 302 304 305 304 304 306 306 303 303 304 302 302 302 302 302 300 300 300 299 299 303 303 302 305 307 305 303 302 301 299 300 304 306 306 305 304 303 304 306 305 304 307 311 312 311 307 304 304 304 302 302 301 301 301 300 301 302 304 309 313 315
303 302 300 301 303 302 302 303 302 302 302 302 302 304 304 305 304 304 304 303 303 303 302 301 302 303 302 302 303 302 302 302 303 302 301 301 300 300 300 300 300 301 302 300 300 301 300 302 302 301 306 311 307 302 302 303 304 305 306 306 305 304 304 303 304 305 304 303 306 310 310 308 306 304 305 304 302 301 301 300 300 300 300 301 300 303 310 315
Wind_Speed
3 3 3 4 3 2 2 3 3 3 2 2 1 1 3 4 4 5 6 8 9 12 13 15 14 13 13 13 12 8 11 13 11 19 21 20 18 16 17 16 15 13 11 14 15 12 12 13 10 9 7 4 4 6 6 6 5 2 1 2 3 4 3 3 4 5 3 2 7 10 12 8 7 12 13 10 8 11 13 10 6 7 8 9 9 7 5 11
3 3 3 3 2 2 2 2 2 2 2 1 1 1 2 3 4 4 5 7 9 11 12 14 14 13 12 13 13 7 7 11 7 17 20 18 17 16 16 16 16 14 13 17 17 16 15 15 14 13 10 4 4 6 4 5 5 2 1 3 3 1 4 6 6 8 6 5 7 9 10 9 9 13 13 8 8 12 10 7 8 8 9 9 9 8 7 15
2 2 3 3 2 2 2 2 3 2 2 1 1 0 2 2 3 3 4 6 8 11 11 13 14 14 12 11 14 8 5 9 6 13 18 16 16 16 16 16 17 14 16 17 16 16 14 15 14 12 11 5 3 4 2 4 4 2 2 3 1 4 6 8 10 9 8 8 7 8 9 9 9 10 9 6 7 10 7 8 10 7 6 5 5 6 9 18
2 1 2 2 2 2 2 2 2 2 2 2 1 1 1 1 2 2 3 5 7 10 10 11 12 13 12 10 13 10 4 6 6 12 14 15 16 16 16 17 16 14 17 15 13 13 12 12 12 9 9 5 2 2 1 4 4 4 3 4 4 7 5 6 10 9 9 9 8 10 10 9 9 8 7 8 7 5 8 8 6 4 2 6 5 7 12 19
2 1 1 2 1 2 2 1 1 2 2 2 1 1 0 1 1 1 2 4 6 9 10 10 11 12 12 9 10 11 5 2 5 12 13 14 15 15 16 15 15 16 17 14 12 12 11 13 12 8 7 4 4 3 2 4 4 3 6 10 8 8 5 7 10 10 11 12 11 10 9 8 10 9 8 10 7 6 9 8 3 5 2 1 5 8 13 21
1 0 1 1 1 1 2 2 1 1 1 1 1 1 1 1 1 1 2 4 5 8 10 10 10 11 12 9 7 11 8 2 5 12 12 14 14 14 15 14 17 18 17 16 15 14 13 15 14 11 10 5 5 4 2 3 4 2 6 9 7 6 5 10 12 12 13 13 11 9 9 11 12 12 13 16 17 17 18 17 14 12 7 6 5 8 14 22
1 0 1 1 1 1 2 3 1 0 1 1 1 1 1 1 2 1 2 4 5 7 9 10 10 10 11 9 5 7 7 4 7 11 12 14 14 13 15 16 18 18 17 17 17 16 14 14 14 12 11 4 5 4 3 5 7 5 5 7 5 5 7 11 13 14 14 13 15 14 13 14 12 11 14 20 23 24 23 24 24 19 14 11 10 9 12 18
2 0 1 1 1 1 2 2 2 0 0 0 1 1 2 2 2 2 3 4 5 7 8 9 10 9 10 8 6 4 4 5 10 12 13 15 15 14 15 16 17 16 15 16 17 16 13 12 14 12 8 5 5 5 4 7 8 7 4 7 7 8 10 13 15 16 16 16 16 15 15 18 19 16 18 23 25 26 26 26 27 24 20 18 15 13 13 15
3 2 1 1 2 1 1 2 2 0 0 0 1 1 2 2 2 2 3 5 6 6 8 9 9 9 9 7 6 4 1 6 11 12 13 14 15 14 14 15 16 16 14 13 15 15 12 10 11 9 8 9 6 7 4 3 3 2 4 9 10 13 14 16 18 19 19 17 15 14 15 20 21 17 19 26 26 28 30 29 28 29 28 25 23 21 18 17
3 3 1 1 2 1 1 2 2 1 0 1 1 1 2 2 2 3 4 5 6 6 8 9 9 9 9 7 7 3 3 8 11 12 13 13 14 14 13 14 15 17 15 12 13 16 14 9 9 9 9 9 7 9 4 2 2 3 8 13 15 17 19 19 19 21 19 16 16 14 13 20 21 13 11 15 14 16 22 25 24 26 30 30 28 28 26 24
4 3 2 1 1 1 1 2 1 1 1 1 1 1 2 2 2 3 4 5 6 7 8 9 10 9 8 7 5 3 5 10 11 13 14 13 14 14 13 14 15 16 16 13 12 16 15 10 10 8 6 5 8 11 5 5 6 7 10 13 15 17 19 20 19 20 16 10 13 13 13 19 17 12 16 22 17 11 13 17 17 18 20 23 24 26 28 27
4 3 2 1 1 1 1 2 1 1 1 1 2 1 1 1 2 3 4 5 6 7 8 9 10 10 8 4 2 5 8 10 11 13 14 14 14 14 12 12 14 15 16 14 13 15 16 13 10 5 5 7 9 8 3 4 7 8 8 8 11 12 12 16 17 17 11 7 9 9 11 12 8 15 27 34 30 20 16 15 14 16 18 19 20 20 22 24
4 3 2 1 1 1 1 1 1 1 1 1 2 2 2 1 2 3 4 5 6 7 8 9 9 10 8 3 2 7 9 9 11 13 14 15 15 15 14 12 12 14 15 15 14 15 15 14 10 6 8 9 7 6 8 12 10 7 6 5 7 8 5 8 12 12 9 8 8 3 6 5 2 15 25 24 24 23 22 20 19 20 21 21 21 20 20 21
4 4 2 2 1 1 1 1 1 1 1 2 2 2 2 2 3 3 4 5 6 7 8 9 9 8 5 4 5 6 7 9 11 13 15 15 14 13 13 14 15 15 16 15 15 17 14 12 10 8 8 7 8 11 11 10 6 2 4 3 3 3 1 2 6 9 5 6 9 4 5 7 5 15 21 15 16 20 20 21 21 21 21 20 19 19 21 21
5 4 3 2 2 2 1 1 1 1 1 1 2 2 2 3 3 4 4 5 6 7 8 9 8 6 4 4 5 6 7 10 12 14 15 14 14 10 9 14 17 17 16 16 16 15 13 10 8 7 7 7 7 9 7 5 4 2 3 3 2 2 2 3 6 12 5 5 12 8 5 8 6 13 15 6 12 16 16 17 17 18 19 19 19 18 19 22
6 5 4 3 2 2 1 1 0 1 1 2 2 3 3 3 3 4 5 5 6 7 8 8 6 3 3 3 4 5 8 11 13 14 14 13 13 10 9 14 17 17 18 18 16 12 10 8 6 6 7 6 5 4 4 4 1 3 2 3 4 5 5 5 2 12 10 5 9 10 6 7 6 10 14 6 6 13 15 16 17 18 19 20 20 19 19 20
8 7 5 4 3 3 2 1 0 1 1 2 3 3 4 4 4 4 4 5 7 8 7 5 3 2 1 2 2 4 8 13 13 13 14 12 10 10 13 16 16 16 17 17 14 10 7 6 4 4 4 4 4 3 3 4 2 0 2 4 6 7 7 7 4 5 8 5 5 9 10 12 10 12 20 22 16 14 16 18 19 21 22 21 22 22 21 21
10 8 6 5 4 3 2 1 1 1 1 2 3 4 5 4 5 3 2 5 8 6 2 2 4 2 1 3 4 6 11 14 13 12 12 10 10 12 14 15 14 14 15 13 10 6 4 4 4 2 2 3 3 2 3 4 5 6 5 5 6 7 7 9 7 4 4 6 9 10 14 17 15 14 22 28 26 22 21 21 22 24 24 23 23 23 23 22
11 9 7 6 5 4 3 2 1 0 1 2 3 5 4 4 4 2 3 8 7 3 1 2 4 2 3 6 8 9 13 13 11 12 11 9 12 14 13 14 13 12 11 7 4 3 2 4 5 3 1 1 1 2 3 6 7 9 8 7 8 8 8 10 10 9 10 10 10 12 15 17 17 14 18 25 27 26 25 24 25 26 26 24 23 24 24 23
11 11 9 7 6 5 3 2 1 1 1 2 3 4 3 4 2 2 5 8 4 1 3 5 6 6 7 9 10 12 12 11 10 11 11 10 13 12 9 12 13 7 4 3 3 2 1 3 4 2 3 2 3 3 5 7 7 8 8 7 9 9 9 10 10 11 10 9 8 11 16 18 17 14 15 23 25 23 24 25 26 27 27 27 26 25 25 25
12 12 10 9 7 5 4 3 2 2 2 2 3 3 2 3 2 1 5 4 2 3 5 6 8 8 7 9 11 11 11 10 8 9 10 11 12 8 5 9 9 4 4 9 9 2 1 4 3 2 4 3 3 4 5 6 6 6 6 6 8 9 10 11 11 12 10 8 8 11 16 20 18 14 15 19 20 20 23 24 25 27 27 27 27 26 26 26
12 12 11 10 8 6 6 4 3 3 2 2 2 2 0 2 2 3 5 2 3 5 5 5 5 5 6 7 8 9 9 7 6 8 10 12 10 5 5 7 4 3 8 11 8 3 2 5 1 5 5 5 3 4 4 5 6 5 4 5 7 8 9 10 10 10 6 4 7 11 15 19 17 14 14 17 19 23 28 28 27 28 27 26 26 25 25 25
13 13 13 11 9 7 7 5 4 3 2 2 1 1 1 2 3 4 4 2 3 4 4 4 2 2 5 6 6 7 7 3 4 8 10 10 7 4 7 5 2 5 8 6 4 4 4 6 6 7 4 4 4 4 4 5 5 4 4 5 7 7 8 8 5 4 3 4 8 12 15 16 15 13 13 20 27 29 30 31 30 29 28 28 27 25 26 26
14 14 13 12 10 9 7 6 5 4 3 2 1 2 3 3 4 4 3 2 1 2 3 3 2 3 5 6 6 5 4 6 6 7 8 10 6 4 5 4 3 4 4 5 6 6 9 13 14 9 3 3 6 6 5 5 4 5 6 6 8 9 9 10 8 7 6 7 9 11 13 11 9 11 11 15 21 23 27 28 27 29 30 29 28 27 27 27
15 15 14 13 11 10 8 7 5 4 3 2 2 3 3 4 5 4 2 2 1 1 2 2 3 3 4 4 4 6 8 8 5 6 9 9 4 4 5 3 1 2 4 8 7 8 9 10 6 3 3 4 4 6 5 4 3 5 7 8 9 10 11 12 12 11 8 6 4 4 7 6 3 7 9 6 7 11 17 19 21 27 28 28 29 29 28 28
16 15 15 14 12 11 9 7 6 5 4 3 3 3 3 4 5 4 1 1 1 1 1 1 2 2 3 2 5 10 8 3 3 7 8 4 3 4 5 2 1 2 4 5 5 5 5 4 1 1 4 4 4 7 6 5 3 4 4 5 7 9 12 13 12 9 6 6 2 4 4 8 4 6 9 9 9 10 11 12 18 25 26 26 28 29 29 27
17 16 16 15 13 13 10 7 7 7 4 3 3 3 3 4 5 4 1 1 1 1 1 1 2 2 3 3 7 7 4 3 5 5 2 2 4 4 2 3 1 3 4 4 4 2 3 4 1 1 2 3 4 6 5 6 4 4 2 3 6 9 13 14 10 7 6 7 5 6 6 8 8 5 5 7 9 11 10 9 12 19 25 27 27 27 29 27
17 17 16 16 15 14 11 8 8 8 5 3 2 2 3 4 4 2 1 1 1 1 1 2 2 3 4 6 7 3 4 5 3 1 3 5 5 1 3 4 2 5 4 2 3 3 1 3 3 2 2 4 5 4 4 6 5 6 5 7 8 10 14 13 9 7 7 6 6 6 7 5 8 4 2 5 9 9 9 8 8 12 21 27 27 26 28 26
18 17 18 17 16 15 12 9 9 8 6 4 2 1 3 4 3 1 1 1 1 1 1 2 2 2 4 6 3 1 4 3 1 3 8 7 4 3 5 5 4 7 6 6 6 8 6 4 1 3 2 4 5 4 3 4 6 7 7 8 8 9 13 12 7 6 5 4 6 5 8 4 8 7 4 4 6 6 6 5 7 11 13 17 26 29 29 26
19 18 18 18 17 16 14 11 9 8 6 4 2 1 2 2 1 2 1 2 1 1 1 2 1 1 2 4 1 1 3 3 1 5 7 5 5 6 7 7 5 5 5 6 9 13 16 11 2 3 6 5 3 6 8 9 8 8 7 6 8 8 10 6 2 1 1 4 7 6 11 8 6 4 1 2 3 6 7 8 9 13 17 16 14 26 31 29
19 19 19 19 18 17 15 13 10 8 7 5 3 1 1 1 1 1 1 1 1 1 2 2 1 0 1 1 0 1 2 2 2 3 3 3 4 5 5 5 3 2 2 2 4 9 14 10 2 3 5 3 3 6 9 11 6 3 4 5 6 6 5 2 1 1 1 4 4 3 9 8 6 4 1 5 8 9 8 10 12 12 16 23 23 19 28 31
19 19 19 20 18 18 16 13 11 9 8 6 4 2 1 1 1 2 2 0 1 1 2 2 1 1 1 1 2 2 2 2 2 1 1 2 2 2 2 1 2 3 4 3 4 8 9 4 3 1 1 2 3 4 4 3 4 2 3 4 6 6 4 4 2 1 3 4 1 1 3 4 8 7 5 10 12 12 12 14 16 14 15 23 29 25 21 32
19 18 19 20 19 18 17 13 12 11 9 7 5 3 2 0 2 2 2 1 1 1 2 1 1 1 1 0 1 0 0 2 1 1 1 0 1 1 4 2 0 2 1 3 6 6 6 2 3 1 1 3 3 3 4 1 1 3 3 3 3 4 5 7 5 4 5 5 1 4 4 4 7 4 3 7 13 16 16 20 22 20 21 25 23 15 20 30
18 17 18 19 19 19 17 14 13 12 10 9 5 2 2 2 2 0 1 2 1 0 2 2 0 1 1 0 1 1 1 1 0 1 1 1 1 1 2 2 2 2 1 2 4 2 2 4 0 2 1 3 3 3 3 3 5 3 0 0 2 0 1 4 4 4 7 9 5 2 4 3 4 1 1 6 16 18 17 19 15 11 14 15 14 18 24 26
16 16 17 19 20 20 18 16 14 13 12 10 4 1 2 3 3 1 1 2 1 1 2 2 2 0 1 1 1 1 1 1 0 2 2 3 1 1 2 1 0 1 1 1 3 1 2 6 4 3 4 7 4 3 1 2 4 2 1 1 1 2 3 3 6 7 9 9 6 2 2 2 3 1 0 8 16 16 19 19 8 9 9 9 22 24 23 22
15 15 16 18 20 21 19 17 15 15 14 9 3 2 4 2 1 1 1 2 2 2 2 1 1 0 2 1 1 1 1 0 2 2 1 2 1 1 2 1 1 2 2 2 2 2 2 6 5 3 2 6 3 2 2 1 1 1 1 1 2 2 4 2 6 7 7 6 3 2 2 4 3 1 3 11 15 13 17 17 7 8 10 11 16 19 19 18
14 14 15 18 20 20 20 18 16 17 14 7 2 4 2 1 0 1 1 3 2 2 2 1 0 1 1 0 1 2 1 0 1 1 1 0 1 1 2 2 2 2 3 3 1 2 0 7 9 6 3 2 2 1 1 2 1 1 2 4 3 1 3 0 4 4 4 5 4 2 4 5 5 4 8 14 15 13 13 12 7 6 8 8 9 13 15 14
13 13 13 16 18 19 20 18 17 18 11 3 3 4 1 1 1 2 3 3 2 2 2 1 1 2 1 1 1 2 2 0 0 0 1 1 0 2 3 2 1 2 4 3 1 1 2 5 8 2 2 1 1 1 2 3 3 1 2 3 2 1 1 1 2 3 4 5 5 4 6 4 3 5 11 14 15 14 13 10 8 5 7 7 8 11 12 12
12 11 9 13 18 20 19 18 18 17 8 2 4 4 1 1 1 3 4 2 2 2 2 2 1 2 1 1 1 1 2 0 2 1 1 0 0 1 2 2 1 3 5 4 0 0 2 2 5 0 3 7 3 2 2 2 2 2 2 2 1 1 2 2 1 2 2 4 4 5 7 3 2 6 10 12 15 14 12 9 8 4 5 10 9 9 12 14
13 9 5 12 19 19 19 19 17 12 4 2 4 2 0 2 1 3 5 3 2 1 1 0 1 1 1 2 1 1 2 1 1 0 1 0 1 0 1 2 3 4 3 1 0 0 1 1 4 4 7 8 3 1 1 1 1 2 1 1 2 1 2 2 1 1 1 3 4 5 6 3 2 5 8 12 15 12 10 10 7 0 8 13 11 10 12 14
14 6 5 14 20 20 22 18 11 7 3 2 2 1 1 3 3 3 5 3 2 2 1 2 1 1 1 1 1 0 1 2 2 1 2 1 2 0 0 3 5 5 3 1 1 2 1 1 4 7 7 6 4 0 2 3 2 1 1 0 1 1 2 2 1 1 0 2 3 3 4 3 2 4 6 9 10 9 11 11 3 4 8 10 11 10 9 10
13 3 5 17 22 24 23 12 4 4 3 2 2 2 2 4 4 4 5 3 1 1 2 2 1 1 1 1 2 2 1 2 3 2 2 3 1 1 3 6 6 6 3 0 1 1 0 1 3 6 6 9 7 1 3 2 2 1 1 2 2 1 0 1 2 2 2 3 3 2 3 3 3 4 6 7 10 12 13 13 9 11 12 9 9 10 9 9
12 3 8 20 26 27 20 6 3 4 1 1 3 3 4 4 4 4 4 3 2 2 1 0 1 1 1 0 2 3 2 1 3 3 2 2 1 2 5 6 5 5 2 0 1 1 0 1 2 5 7 6 3 2 4 5 3 1 1 3 2 1 2 3 1 2 3 3 3 2 2 3 3 6 8 10 15 19 20 21 18 15 14 12 11 10 9 11
11 6 10 22 28 27 15 2 4 6 3 3 3 1 2 2 4 5 4 5 5 3 2 1 2 1 0 1 1 3 3 1 2 2 1 1 1 2 5 5 4 3 1 0 1 1 1 1 1 3 6 5 4 3 3 3 3 3 2 1 1 1 2 2 1 1 1 2 5 4 3 4 5 6 9 11 13 15 18 22 20 18 19 15 12 10 10 12
12 8 8 20 28 24 9 3 1 4 5 5 2 2 3 1 5 6 5 6 6 4 3 1 2 3 2 1 2 0 1 2 2 1 1 1 2 2 3 4 4 2 1 1 1 1 1 1 2 2 1 3 4 5 3 4 6 4 4 5 4 2 2 2 1 1 1 4 6 3 3 6 8 8 10 11 12 11 16 21 21 19 21 20 13 10 11 11
12 5 5 12 19 19 12 8 4 2 4 7 2 3 6 2 4 7 5 5 7 6 4 2 3 4 2 1 2 1 3 4 2 1 1 2 2 2 3 3 4 3 1 2 2 1 1 2 3 6 5 5 7 9 7 6 7 7 9 10 9 4 1 1 2 1 2 5 4 1 2 9 11 10 10 11 11 10 12 17 19 18 19 18 14 10 10 9
10 5 8 11 9 12 13 12 11 6 4 10 5 3 9 6 2 5 5 3 7 9 4 2 3 4 3 4 4 3 4 3 1 1 2 4 2 2 4 3 3 4 2 2 3 2 1 3 5 7 10 10 10 14 13 8 7 10 10 11 11 9 4 3 3 2 1 3 3 2 6 8 9 9 9 9 9 7 8 12 15 17 16 13 11 8 9 8
9 5 17 19 8 8 11 12 17 14 5 9 7 3 8 9 5 6 5 2 5 9 5 2 4 7 7 7 4 3 4 3 2 4 3 4 3 2 3 2 1 4 3 2 2 1 1 4 4 4 8 11 12 15 14 9 8 8 9 10 11 11 8 5 5 3 2 1 4 7 9 8 9 9 8 8 8 7 10 13 13 13 13 11 9 8 8 7
10 2 14 21 8 10 17 13 17 18 8 6 5 3 7 10 8 6 5 4 3 7 8 4 6 9 9 7 5 4 5 4 4 5 4 3 3 3 2 1 1 4 5 3 1 1 0 3 3 3 7 11 10 11 9 6 5 7 8 9 9 11 10 7 6 5 4 5 7 7 9 8 6 5 6 10 12 10 11 11 10 10 10 9 9 7 6 5
14 4 11 17 7 8 17 14 15 15 8 5 5 4 6 9 9 7 6 8 5 4 8 8 6 9 10 9 6 5 7 5 2 4 5 3 3 3 2 1 3 3 4 2 1 0 1 2 2 2 5 8 4 2 3 3 4 7 9 8 8 9 8 5 4 4 4 6 7 6 6 6 3 3 7 11 11 9 8 8 7 8 9 9 7 6 4 4
19 9 9 12 6 7 13 12 12 9 5 7 7 5 6 9 12 9 5 10 10 7 12 14 7 7 7 8 9 11 11 4 5 6 7 5 4 4 2 2 5 4 3 3 2 1 2 2 3 2 4 6 3 1 4 3 1 4 9 8 6 5 3 3 4 3 3 4 7 5 4 4 4 6 9 10 9 9 9 9 10 9 9 9 7 5 3 4
26 16 12 11 7 9 12 9 9 8 6 10 12 9 7 9 13 14 6 8 13 11 13 17 12 8 5 8 13 18 18 9 3 5 5 3 4 4 2 3 4 4 3 3 3 2 2 2 4 2 2 6 5 4 6 6 5 3 6 4 3 2 3 4 4 3 4 3 2 3 2 4 6 7 8 8 9 10 12 13 13 12 11 9 7 5 3 2
Wind_Direction
93 88 89 92 92 110 138 148 156 163 157 149 123 77 59 54 47 47 40 37 28 26 23 20 22 24 28 22 27 42 51 62 20 7 27 29 26 29 31 32 32 27 26 37 32 30 33 24 21 36 30 360 13 8 5 9 357 338 235 222 250 250 265 342 6 5 353 17 15 11 16 3 341 358 351 338 309 285 273 263 269 264 257 254 249 250 221 186
94 82 81 89 85 91 121 147 163 167 161 163 144 87 53 54 45 48 40 34 24 23 21 20 23 22 26 18 18 33 55 68 34 6 24 22 16 25 27 29 29 19 28 35 25 23 21 10 10 16 5 347 19 8 8 1 339 313 293 261 252 299 320 333 6 22 20 9 0 350 355 357 335 336 340 334 313 305 293 269 264 245 238 247 242 244 210 182
117 69 74 85 85 88 113 147 170 173 167 174 163 151 49 55 42 49 37 30 20 17 18 18 22 21 23 18 16 25 53 69 43 5 17 13 10 20 22 29 24 16 30 28 14 12 5 350 347 346 333 313 24 359 348 357 333 351 355 259 270 15 336 347 25 33 18 2 351 335 329 331 316 320 329 322 305 299 291 280 279 255 201 183 204 229 196 181
179 43 66 79 81 82 103 135 164 173 172 179 176 189 55 44 36 51 27 21 14 12 13 11 18 20 20 17 17 21 44 78 41 3 8 2 4 13 18 26 20 21 33 24 13 10 6 355 336 322 310 289 31 341 9 16 341 358 336 253 321 0 335 353 20 12 359 353 335 321 316 310 303 315 313 296 294 275 262 263 295 332 126 143 172 215 197 183
198 229 63 76 91 67 74 90 142 164 173 186 185 203 355 16 15 19 3 7 3 5 6 5 10 15 16 15 20 19 16 90 17 357 357 354 357 7 13 18 17 24 30 25 20 16 20 11 353 349 320 301 27 2 78 32 336 321 260 256 308 348 327 323 342 339 336 333 321 313 304 298 303 303 283 276 271 244 249 250 299 335 319 184 183 198 195 188
219 225 79 84 98 63 62 47 54 163 173 182 201 234 293 318 322 329 327 338 345 354 359 1 2 9 13 10 24 30 29 57 359 350 351 353 356 5 8 10 15 20 22 21 23 22 27 18 9 10 333 315 45 10 37 17 315 289 262 269 315 337 301 304 314 310 311 309 299 291 287 292 295 285 266 258 255 249 245 249 266 275 272 272 237 207 199 197
220 45 96 114 113 76 57 33 28 199 188 178 228 248 276 295 300 319 316 320 328 338 349 358 359 6 10 8 26 41 54 46 347 348 353 354 358 3 5 8 10 14 14 11 21 25 22 18 10 360 328 313 59 1 335 321 282 240 267 294 317 309 283 288 294 290 288 280 274 277 282 279 269 270 266 252 251 254 249 249 261 265 258 253 249 239 225 214
208 191 107 152 164 81 53 23 23 352 219 193 267 261 275 290 288 310 317 314 320 329 341 353 356 2 6 12 10 7 66 18 343 349 353 355 359 358 4 9 6 12 12 1 13 23 20 19 7 360 339 335 17 333 314 312 278 226 259 315 315 296 284 286 287 281 277 272 274 276 270 263 257 262 266 255 253 256 253 249 253 257 255 250 250 249 244 240
197 200 177 182 195 137 69 17 17 39 215 308 295 276 282 288 293 316 322 315 320 328 335 345 352 357 359 4 356 335 346 342 340 346 348 354 358 356 0 2 360 9 14 358 1 11 19 19 360 358 332 312 310 307 326 350 301 217 304 319 306 289 285 285 281 276 274 274 276 272 262 262 264 266 264 259 257 257 256 254 250 252 255 254 254 251 246 246
189 198 220 219 215 216 33 5 14 65 79 3 316 304 296 288 307 326 320 314 317 326 332 340 345 350 354 351 344 331 297 324 338 344 346 352 353 357 356 351 356 2 5 2 350 354 11 11 343 340 312 296 289 291 287 216 264 298 302 299 286 279 278 273 269 269 273 280 276 269 268 269 269 265 261 262 259 255 253 253 253 252 254 256 255 255 253 250
193 207 230 236 245 275 352 359 13 78 87 12 337 318 304 299 324 333 321 312 313 324 332 335 338 343 351 349 344 331 311 323 338 346 348 350 349 354 348 342 354 357 355 358 345 342 355 351 339 341 308 300 309 293 257 212 256 290 303 296 279 272 271 262 257 261 264 275 269 267 276 273 268 257 254 258 254 242 235 240 246 246 250 255 256 256 256 253
201 217 235 252 273 293 345 359 18 81 90 13 345 321 318 325 336 332 316 309 312 322 331 333 336 339 344 352 339 313 313 324 339 344 349 352 347 346 344 339 345 349 348 347 338 334 340 339 338 334 295 306 313 300 277 272 285 296 295 290 285 281 269 251 242 242 238 240 259 281 287 268 241 237 253 260 252 240 233 230 233 242 247 250 251 252 251 249
207 217 233 260 273 282 323 359 49 68 40 4 341 326 337 351 344 329 311 310 317 326 330 330 332 336 341 338 294 305 308 324 339 343 349 352 346 343 340 337 338 341 342 338 331 328 331 332 327 303 292 299 298 298 298 290 287 290 272 260 292 297 281 249 229 219 219 232 239 279 289 276 234 246 263 270 250 232 233 237 241 248 252 252 252 248 245 242
212 217 235 260 265 282 315 355 56 65 17 354 333 333 347 354 344 325 318 319 322 328 326 325 330 335 332 304 307 311 312 327 338 345 349 346 346 347 336 330 335 335 335 333 325 323 326 328 322 306 289 268 271 295 299 280 252 254 282 258 265 285 300 247 193 181 196 223 203 181 267 275 294 276 280 274 235 220 221 233 241 245 249 251 252 250 245 239
214 219 240 254 254 270 307 332 52 59 8 338 329 336 345 348 344 331 329 330 328 327 319 322 331 330 307 286 305 311 317 335 342 343 344 340 342 348 326 319 325 327 328 328 325 324 328 328 317 304 287 262 268 290 294 264 205 175 292 276 236 264 297 290 175 169 184 206 186 183 273 268 263 288 295 255 205 211 219 232 237 241 247 248 251 251 250 244
217 222 234 242 245 253 289 306 23 38 355 337 334 337 340 338 338 335 334 336 333 323 317 326 340 336 308 280 307 318 320 333 337 334 338 339 339 341 329 322 323 324 324 325 328 330 328 324 303 278 273 267 262 270 283 286 233 152 234 282 292 304 314 320 186 182 203 221 191 198 257 273 262 294 302 291 208 208 222 240 242 245 246 246 250 249 249 248
216 220 227 234 237 240 263 279 298 12 351 333 332 334 336 334 336 337 345 351 339 325 320 337 350 326 270 257 309 325 314 324 331 331 335 340 340 337 334 332 328 325 322 317 319 321 309 294 283 264 251 250 254 267 296 305 325 353 250 281 301 307 307 305 303 202 205 234 237 230 251 266 265 273 278 279 271 242 233 242 245 250 248 243 246 247 247 245
216 219 223 229 229 233 245 247 281 351 338 326 333 336 331 332 341 348 17 356 339 334 354 47 2 331 232 265 286 304 310 322 328 327 334 341 341 337 334 335 331 326 323 307 292 291 268 248 255 273 241 222 241 273 300 308 316 311 298 297 296 296 294 287 290 298 272 267 268 265 267 270 271 271 270 271 270 261 252 248 245 247 247 243 240 242 244 241
215 216 218 224 226 227 230 229 236 281 313 323 334 335 333 342 359 63 32 351 350 17 73 1 342 292 286 292 289 307 316 323 325 328 339 340 336 338 339 344 340 328 323 310 273 237 237 255 252 268 297 210 289 333 297 300 306 301 299 294 286 282 277 274 274 282 289 282 271 271 272 273 274 271 268 268 265 262 261 256 249 244 243 243 241 240 240 239
212 212 216 219 222 222 219 219 213 234 292 321 338 342 346 344 352 101 2 343 354 33 287 294 297 281 284 285 293 313 321 324 325 330 338 334 338 346 351 351 341 312 275 295 304 231 255 302 262 273 353 2 353 330 286 291 297 294 295 285 280 282 274 271 273 273 277 280 269 264 270 273 273 270 266 269 268 263 260 255 248 244 242 242 240 240 238 237
210 211 214 217 218 217 215 212 205 219 268 300 342 2 3 337 328 348 341 325 288 315 303 295 296 286 271 272 294 316 328 327 316 321 334 339 348 3 10 353 339 293 284 314 307 252 216 284 274 12 358 340 325 296 285 289 290 288 292 291 283 278 274 269 268 267 267 271 270 269 274 273 270 270 265 265 266 259 253 251 248 245 244 243 239 238 237 235
209 210 212 216 215 212 214 210 202 212 250 277 335 17 4 330 344 341 333 294 269 308 321 310 298 292 284 282 296 316 332 325 300 312 329 344 355 2 346 343 332 308 315 312 301 293 290 260 288 39 1 325 294 262 265 260 267 274 271 282 279 275 278 268 257 259 256 251 272 279 278 276 272 267 259 253 252 253 251 248 248 247 245 245 241 236 233 231
208 210 210 214 212 209 213 208 201 207 230 255 306 346 324 327 342 347 334 306 280 296 313 312 296 292 293 292 303 321 331 313 299 308 318 343 353 328 326 331 331 319 309 312 324 327 298 265 308 353 348 313 295 267 259 249 251 256 250 263 270 278 286 277 258 244 223 228 272 284 279 277 278 270 261 253 250 253 254 250 247 246 243 244 244 238 230 225
206 209 210 211 207 207 210 205 202 206 222 248 290 306 315 325 333 346 328 288 250 271 290 288 269 265 273 286 309 330 317 291 293 288 303 333 334 314 327 333 343 311 295 348 343 295 269 270 290 311 297 293 304 296 282 264 261 253 246 253 264 273 274 277 294 300 283 258 255 273 281 278 267 256 258 253 246 246 248 248 246 243 241 241 243 242 233 225
205 208 210 208 204 204 205 201 201 203 216 236 265 289 307 323 330 339 316 273 250 235 270 277 267 267 270 281 315 326 306 292 276 268 297 323 327 325 323 308 327 293 324 349 324 280 273 277 286 293 292 313 305 287 267 239 266 271 248 242 254 275 280 285 304 308 300 287 238 234 285 287 216 235 265 272 247 236 233 235 238 238 239 238 238 239 234 227
203 207 207 205 202 200 198 195 195 200 211 228 251 281 303 323 328 326 310 298 278 189 182 245 241 267 274 276 328 328 310 268 254 286 301 324 335 334 317 282 194 261 323 335 298 277 264 261 116 126 302 320 292 278 259 221 243 270 239 231 255 282 289 290 300 300 293 304 275 158 254 288 277 251 270 272 260 254 239 227 228 230 231 231 230 230 231 227
202 206 206 203 202 198 195 189 189 195 203 225 247 273 301 329 328 323 10 8 266 182 149 203 222 253 260 287 328 332 303 286 307 302 317 338 324 337 310 297 253 268 333 356 306 256 221 257 231 115 343 315 285 275 231 185 201 257 282 337 310 295 291 289 292 288 278 293 274 186 206 278 288 259 244 251 254 254 247 238 230 223 221 222 224 222 224 225
203 206 205 202 203 200 198 193 188 190 195 211 232 269 314 334 325 325 52 351 246 164 150 173 213 252 281 312 323 314 278 302 323 302 333 322 306 275 251 264 242 270 308 22 294 271 292 310 266 231 316 284 255 243 200 176 211 269 323 339 313 293 287 284 281 273 269 289 281 204 182 254 279 265 254 262 258 257 253 254 253 238 222 213 213 217 219 218
204 205 204 202 202 200 200 199 194 193 194 200 215 266 320 326 318 19 52 281 197 139 164 162 200 254 311 317 305 246 279 289 133 297 317 320 280 251 268 267 264 275 260 208 236 271 286 303 241 172 236 258 248 261 250 204 236 284 327 321 295 281 277 271 262 267 261 264 271 211 167 220 279 280 289 273 259 281 293 285 292 294 272 223 205 207 213 211
204 204 202 200 199 198 200 200 197 196 190 189 198 224 321 319 349 51 351 254 146 116 147 138 174 238 334 320 214 150 274 244 244 307 309 298 269 272 280 279 271 265 254 218 228 258 266 272 295 183 223 251 287 292 270 238 249 304 327 300 285 273 267 267 256 285 270 249 259 216 182 201 279 298 340 24 335 325 321 309 304 311 315 302 240 206 203 204
204 201 201 200 198 198 199 198 195 191 185 183 185 192 307 342 61 81 233 222 93 123 157 114 59 20 32 27 111 311 291 245 290 330 314 286 273 277 283 293 288 274 315 257 241 273 275 265 232 208 234 261 304 292 263 235 229 301 310 295 308 293 267 296 66 101 267 267 283 232 186 197 249 260 45 8 342 329 314 298 293 292 294 298 292 249 205 193
202 200 200 199 199 199 198 196 191 183 179 176 165 149 59 14 242 213 216 315 34 197 170 111 78 35 38 110 181 282 320 272 288 35 27 318 298 321 344 341 335 357 7 354 327 316 298 251 160 120 287 234 263 300 289 213 182 262 302 322 334 334 337 342 333 299 272 268 331 80 154 207 249 258 337 351 335 319 299 286 284 282 271 270 282 275 211 179
199 199 199 198 197 197 197 195 186 179 176 166 155 136 79 329 242 207 186 230 295 175 122 104 132 86 30 56 208 291 315 259 281 83 112 319 280 1 24 351 356 78 59 318 335 331 318 331 108 82 307 195 201 298 324 330 300 313 333 348 339 342 342 330 315 313 294 279 318 120 158 257 270 269 339 337 315 303 301 297 281 270 266 260 262 244 179 164
197 197 197 198 196 195 194 191 183 177 171 158 146 120 105 202 238 308 199 208 243 222 113 94 77 163 187 37 42 45 336 245 266 322 206 152 277 237 65 5 26 89 171 296 347 7 321 317 185 158 209 156 179 251 275 303 310 312 48 65 317 329 332 311 305 316 305 297 304 139 164 282 305 282 203 309 311 312 328 327 302 286 282 247 193 153 149 153
195 196 195 196 196 194 192 188 181 175 169 156 136 139 179 211 236 240 197 177 155 187 135 100 56 341 222 126 84 72 61 168 219 317 214 178 274 315 81 73 55 18 69 55 340 336 238 258 229 166 162 157 181 247 240 321 311 286 146 106 307 160 155 251 269 271 280 291 298 214 194 300 303 235 45 330 323 332 349 348 358 40 34 131 141 135 140 149
193 194 196 197 195 193 191 186 180 174 168 153 132 218 212 222 243 163 151 124 134 149 125 101 75 72 241 164 124 234 90 194 305 336 246 176 127 28 37 73 96 24 63 106 333 353 287 267 284 318 236 169 176 237 150 122 323 280 227 272 266 168 143 244 275 265 260 276 288 242 273 322 325 305 2 343 336 345 352 349 9 60 63 96 119 128 136 146
189 189 197 199 194 192 189 184 178 174 169 158 186 223 210 183 45 40 79 110 124 118 98 106 123 118 241 229 148 185 141 325 295 323 275 156 84 106 103 84 74 66 99 122 87 74 190 280 287 292 276 166 158 236 166 187 241 324 273 280 288 140 129 207 295 292 290 290 286 287 318 341 360 347 341 341 338 345 351 347 358 51 78 83 100 122 134 146
184 183 197 200 192 190 186 180 177 173 165 153 231 234 197 158 102 87 117 121 108 93 111 194 216 121 171 231 142 153 129 35 309 327 291 283 173 153 130 103 44 97 124 127 43 102 131 292 292 240 132 331 178 96 339 262 233 274 298 291 320 14 317 314 304 307 325 310 294 322 336 350 19 333 330 334 332 341 350 343 342 22 72 75 90 114 126 144
179 177 201 204 189 185 182 177 173 169 165 183 218 229 178 122 85 131 149 123 87 126 150 205 202 88 163 190 104 110 123 6 334 355 302 8 125 189 150 121 114 135 151 156 115 54 134 287 294 109 24 333 318 117 4 319 266 307 343 339 346 236 258 275 321 320 317 299 296 323 332 356 26 326 324 325 326 338 344 332 331 351 90 88 93 123 139 152
169 169 215 200 184 180 175 169 166 166 177 209 193 207 122 114 124 169 169 131 78 129 148 135 138 138 195 165 117 80 130 187 297 288 243 215 125 215 32 94 139 154 172 197 332 308 111 170 260 293 342 338 323 131 83 59 324 311 324 318 313 262 238 248 249 182 247 299 309 316 318 341 4 326 324 327 331 340 330 313 312 349 119 117 132 162 159 156
161 169 231 186 176 174 166 162 169 181 209 243 169 155 147 142 135 162 179 166 78 78 82 33 62 139 148 142 145 135 145 194 209 206 259 231 142 158 98 125 143 149 151 313 227 212 213 168 259 298 325 317 291 199 121 150 173 255 256 251 350 330 325 330 324 133 135 296 290 295 306 307 312 327 333 332 329 319 309 307 309 92 94 120 146 154 143 143
165 192 204 174 171 169 162 159 184 187 213 240 160 111 131 142 131 146 175 178 96 74 76 33 31 129 183 202 145 144 190 212 183 189 252 237 183 124 153 144 143 153 169 280 130 182 294 167 267 282 272 277 288 352 74 96 158 247 285 134 122 135 98 330 304 326 330 281 259 252 273 276 286 335 345 337 330 328 337 354 31 57 54 71 102 111 117 128
178 177 166 168 168 166 162 165 200 183 222 185 124 107 123 130 125 137 162 178 164 142 108 107 203 197 221 162 121 157 187 194 173 181 223 245 299 99 143 150 148 155 183 323 94 90 346 165 277 288 272 282 310 72 50 42 72 14 310 164 156 160 178 200 227 344 318 291 305 298 274 288 324 353 357 351 346 351 3 11 18 27 31 51 76 88 109 117
164 128 157 168 167 166 170 192 188 194 203 123 108 115 125 150 166 153 167 191 182 164 164 203 212 204 188 48 108 174 181 157 181 193 183 250 275 118 139 167 180 170 182 229 109 152 225 178 85 337 324 333 357 3 355 10 15 331 296 210 140 160 207 220 147 76 254 299 345 337 296 307 322 345 355 355 357 1 1 2 10 14 12 28 65 83 95 104
141 109 150 171 171 175 197 287 209 195 181 144 130 173 146 189 197 179 173 187 186 175 166 168 138 120 87 48 49 14 232 200 179 144 51 237 227 159 151 183 198 183 153 176 171 166 232 269 124 98 4 307 310 314 316 336 336 320 307 320 326 286 236 253 263 227 266 326 340 330 273 299 312 336 351 352 360 0 351 356 6 8 6 14 37 70 88 98
161 132 128 167 182 198 234 263 256 259 177 160 145 181 175 179 196 185 175 180 189 174 140 117 127 113 90 150 149 231 235 213 197 21 311 237 229 150 153 174 178 174 155 179 214 235 272 268 208 183 196 221 253 272 289 326 323 300 302 312 311 301 247 231 280 269 287 312 312 234 298 309 316 339 350 347 352 351 343 348 352 353 3 11 17 51 86 98
186 187 167 160 182 219 244 250 232 236 178 167 166 181 183 174 129 172 184 194 190 176 151 127 159 160 175 174 176 207 202 185 200 248 229 222 219 112 132 140 160 190 200 164 189 205 289 268 234 212 223 236 252 269 285 303 289 279 294 300 299 304 290 240 265 265 272 317 297 307 334 320 314 330 338 332 337 341 331 334 338 344 358 6 7 44 92 104
192 203 187 177 165 190 212 230 216 208 192 176 173 149 178 181 165 171 183 170 176 181 180 195 209 208 199 178 168 170 157 148 210 227 215 203 198 142 134 115 123 173 155 125 184 207 299 263 239 212 242 251 254 264 274 279 269 264 270 276 288 299 289 256 259 252 173 197 270 298 318 311 306 322 327 319 320 314 312 324 335 342 354 8 20 49 86 102
197 205 186 188 193 184 188 196 189 188 202 202 187 168 178 187 187 175 147 119 173 209 202 204 221 213 207 204 192 168 164 176 214 224 209 177 181 179 162 96 107 166 157 135 218 292 17 247 227 224 267 269 260 261 260 249 257 265 263 268 277 283 274 254 250 247 222 233 252 276 297 292 284 301 310 315 319 310 307 325 337 338 351 17 40 58 77 91
198 201 175 185 202 187 184 174 160 175 201 205 210 216 184 184 190 176 149 156 171 193 195 211 220 191 194 212 213 211 206 183 144 189 187 158 165 191 198 157 132 174 197 172 137 123 149 242 235 219 289 294 289 280 263 233 252 276 279 282 281 283 280 251 248 257 241 262 275 282 297 290 258 277 308 318 326 324 320 328 331 336 354 14 38 63 69 65
201 207 178 176 183 169 169 159 152 166 190 194 207 200 179 198 194 171 169 197 189 165 184 202 193 150 176 205 214 231 233 201 93 131 154 151 164 171 171 149 129 141 195 183 147 142 156 268 301 10 330 296 275 307 315 326 350 285 290 293 281 285 297 255 253 243 212 267 301 316 321 301 298 322 325 327 337 343 339 335 338 351 4 8 15 35 46 39
205 210 192 175 172 169 164 152 153 166 190 204 206 193 190 207 184 161 169 221 207 200 203 196 170 133 162 201 215 229 229 221 170 157 166 193 205 194 201 186 155 151 171 160 160 181 175 260 298 11 344 283 283 294 308 347 22 315 286 274 225 241 306 294 270 233 209 222 286 303 290 283 305 327 332 333 345 349 341 338 341 344 351 359 357 350 351 13